404 - Page Not Found

404

Error - Page Not Found


Please check the URL.

Otherwise, click here to be redirected to the homepage.

  • Currently

    Reported at Minneapolis, Minneapolis-St. Paul International Airport, MN
    1:53 PM CST FRI FEB 23 2018
  • 32°F0°C
  • Partly Cloudy
    Partly Cloudy
  • Feels Like:25°F-4°CDew Point:21°F-6°CHumidity:64% Winds:SSW 9 mph 14 kph
    Pressure:30.18 in1022 hPaVisibility:10.00 miles16090.00 meters
Time Weather Temp Dew Point
Humidity Winds Visibility Pressure Precipitation
1 hr 24 hr
Thursday, February 22
00:53 00:53 Mostly Cloudy With Scattered Snow Showers Mostly Cloudy With Scattered Snow Showers 26°F-3°C 26°F-3°C 100% ENE 7 mphENE 11 kph 1.0 miles1.6 km 30.18 in1022 hPa 0.14 in90.32 mm --
00:43 00:43 Mostly Cloudy With Scattered Snow Showers Mostly Cloudy With Scattered Snow Showers 26°F-3°C 26°F-3°C 100% ENE 6 mphENE 9 kph 1.0 miles1.6 km 30.18 in1022 hPa 0.13 in83.87 mm --
00:23 00:23 Mostly Cloudy With Snow Mostly Cloudy With Snow 26°F-3°C 26°F-3°C 100% E 7 mphE 11 kph 0.5 miles0.8 km 30.21 in1023 hPa 0.11 in70.97 mm --
00:07 00:07 Mostly Cloudy With Heavy Snow Mostly Cloudy With Heavy Snow 27°F-3°C 26°F-3°C 96% E 7 mphE 11 kph 0.2 miles0.4 km 30.21 in1023 hPa 0.06 in38.71 mm --
23:53 23:53 Mostly Cloudy With Heavy Snow Mostly Cloudy With Heavy Snow 26°F-3°C 26°F-3°C 100% ESE 7 mphESE 11 kph 0.2 miles0.4 km 30.24 in1024 hPa 0.07 in45.16 mm --
23:40 23:40 Mostly Cloudy With Snow Mostly Cloudy With Snow 27°F-3°C 26°F-3°C 96% ESE 6 mphESE 9 kph 0.5 miles0.8 km 30.24 in1024 hPa 0.04 in25.81 mm --
22:55 22:55 Cloudy With Light Snow Cloudy With Light Snow 27°F-3°C 26°F-3°C 96% E 7 mphE 11 kph 1.2 miles2.0 km 30.24 in1024 hPa 0.00 in0.03 mm --
22:53 22:53 Cloudy With Light Snow Cloudy With Light Snow 27°F-3°C 26°F-3°C 96% E 8 mphE 13 kph 1.5 miles2.4 km 30.24 in1024 hPa 0.02 in12.90 mm --
22:03 22:03 Cloudy With Light Snow Cloudy With Light Snow 27°F-3°C 25°F-4°C 92% E 10 mphE 17 kph 1.5 miles2.4 km 30.24 in1024 hPa 0.00 in0.03 mm --
21:53 21:53 Cloudy With Light Snow Cloudy With Light Snow 26°F-3°C 25°F-4°C 96% ESE 10 mphESE 17 kph 1.5 miles2.4 km 30.27 in1025 hPa 0.03 in19.35 mm --
21:46 21:46 Cloudy With Light Snow Cloudy With Light Snow 27°F-3°C 25°F-4°C 92% ESE 9 mphESE 15 kph 1.5 miles2.4 km 30.27 in1025 hPa 0.02 in12.90 mm --
20:53 20:53 Cloudy With Light Snow Cloudy With Light Snow 26°F-3°C 25°F-4°C 96% E 12 mphE 19 kph 1.2 miles2.0 km 30.27 in1025 hPa 0.03 in19.35 mm --
20:27 20:27 Mostly Cloudy With Scattered Snow Showers Mostly Cloudy With Scattered Snow Showers 26°F-3°C 24°F-4°C 92% E 9 mphE 15 kph 1.0 miles1.6 km 30.3 in1026 hPa 0.02 in12.90 mm --
20:09 20:09 Cloudy With Light Snow Cloudy With Light Snow 27°F-3°C 22°F-6°C 81% E 12 mphE 19 kph 1.2 miles2.0 km 30.3 in1026 hPa 0.00 in0.03 mm --
20:01 20:01 Cloudy With Light Snow Cloudy With Light Snow 28°F-2°C 21°F-6°C 75% E 14 mphE 22 kph 2.5 miles4.0 km 30.3 in1026 hPa 0.00 in0.03 mm --
19:53 19:53 Cloudy With Light Snow Cloudy With Light Snow 28°F-2°C 20°F-7°C 72% E 13 mphE 20 kph 4.0 miles6.4 km 30.33 in1027 hPa 0.00 in0.03 mm --
18:53 18:53 Cloudy Cloudy 29°F-2°C 16°F-9°C 58% E 14 mphE 22 kph 10.0 miles16.1 km 30.33 in1027 hPa 0.00 in0.00 mm --
17:53 17:53 Cloudy Cloudy 30°F-1°C 14°F-10°C 51% E 10 mphE 17 kph 10.0 miles16.1 km 30.39 in1029 hPa 0.00 in0.00 mm --
16:53 16:53 Cloudy Cloudy 30°F-1°C 13°F-11°C 49% E 9 mphE 15 kph 10.0 miles16.1 km 30.42 in1030 hPa 0.00 in0.00 mm --
15:53 15:53 Cloudy Cloudy 29°F-2°C 15°F-9°C 56% ESE 9 mphESE 15 kph 10.0 miles16.1 km 30.42 in1030 hPa 0.00 in0.00 mm --
14:53 14:53 Cloudy Cloudy 28°F-2°C 14°F-10°C 56% E 7 mphE 11 kph 10.0 miles16.1 km 30.45 in1031 hPa 0.00 in0.00 mm --
13:53 13:53 Cloudy Cloudy 26°F-3°C 14°F-10°C 60% SE 9 mphSE 15 kph 10.0 miles16.1 km 30.5 in1033 hPa 0.00 in0.00 mm --
12:53 12:53 Cloudy Cloudy 24°F-4°C 13°F-11°C 62% ESE 12 mphESE 19 kph 10.0 miles16.1 km 30.53 in1034 hPa 0.00 in0.00 mm --
12:39 12:39 Cloudy Cloudy 24°F-4°C 12°F-11°C 60% ESE 13 mphESE 20 kph 10.0 miles16.1 km 30.53 in1034 hPa 0.00 in0.00 mm --
11:53 11:53 Cloudy Cloudy 22°F-6°C 11°F-12°C 63% ESE 7 mphESE 11 kph 10.0 miles16.1 km 30.53 in1034 hPa 0.00 in0.00 mm --
11:20 11:20 Cloudy Cloudy 20°F-7°C 10°F-12°C 65% ESE 7 mphESE 11 kph 10.0 miles16.1 km 30.56 in1035 hPa 0.00 in0.00 mm --
10:53 10:53 Cloudy Cloudy 19°F-7°C 10°F-12°C 68% ESE 10 mphESE 17 kph 10.0 miles16.1 km 30.56 in1035 hPa 0.00 in0.00 mm --
09:53 09:53 Cloudy Cloudy 17°F-8°C 7°F-14°C 64% ESE 8 mphESE 13 kph 10.0 miles16.1 km 30.56 in1035 hPa 0.00 in0.00 mm --
09:34 09:34 Cloudy Cloudy 15°F-9°C 7°F-14°C 70% ESE 9 mphESE 15 kph 10.0 miles16.1 km 30.59 in1036 hPa 0.00 in0.00 mm --
08:53 08:53 Mostly Cloudy Mostly Cloudy 13°F-11°C 5°F-15°C 70% SE 8 mphSE 13 kph 10.0 miles16.1 km 30.59 in1036 hPa 0.00 in0.00 mm --
07:53 07:53 Cloudy Cloudy 13°F-11°C 7°F-14°C 77% E 6 mphE 9 kph 10.0 miles16.1 km 30.59 in1036 hPa 0.00 in0.00 mm --
06:53 06:53 Cloudy Cloudy 11°F-12°C 6°F-14°C 81% E 3 mphE 6 kph 10.0 miles16.1 km 30.62 in1037 hPa 0.00 in0.00 mm --
05:53 05:53 Mostly Cloudy Mostly Cloudy 9°F-13°C 6°F-14°C 88% ENE 5 mphENE 7 kph 10.0 miles16.1 km 30.59 in1036 hPa 0.00 in0.00 mm --
04:53 04:53 Mostly Cloudy Mostly Cloudy 8°F-13°C 3°F-16°C 80% CalmCalm 10.0 miles16.1 km 30.62 in1037 hPa 0.00 in0.00 mm --
03:53 03:53 Mostly Cloudy Mostly Cloudy 8°F-13°C 5°F-15°C 87% CalmCalm 10.0 miles16.1 km 30.59 in1036 hPa 0.00 in0.00 mm --
02:53 02:53 Mostly Cloudy Mostly Cloudy 10°F-12°C 5°F-15°C 80% CalmCalm 10.0 miles16.1 km 30.62 in1037 hPa 0.00 in0.00 mm --
01:53 01:53 Mostly Cloudy Mostly Cloudy 9°F-13°C 5°F-15°C 84% NE 5 mphNE 7 kph 10.0 miles16.1 km 30.62 in1037 hPa 0.00 in0.00 mm --
404 - Page Not Found

404

Error - Page Not Found


Please check the URL.

Otherwise, click here to be redirected to the homepage.